Regional Weather Roundup
Issued by NWS

Home | Current Version | Previous Version | Graphics & Text | Print | Product List | Glossary On
Versions: 1 2 3 4 5 6 7 8 9 10 11 12 13 14 15 16 17 18 19 20 21 22 23 24 25 26 27 28 29 30 31 32 33 34 35 36 37 38 39 40 41 42 43 44 45 46 47 48 49 50
000
ASUS43 KLOT 200706
RWRIL

ILLINOIS REGIONAL WEATHER ROUNDUP
NATIONAL WEATHER SERVICE CHICAGO/ROMEOVILLE IL
200 AM CDT MON OCT 20 2014

NOTE: "FAIR" INDICATES FEW OR NO CLOUDS BELOW 12,000 FEET WITH NO
SIGNIFICANT WEATHER AND/OR OBSTRUCTIONS TO VISIBILITY.

* THESE STATIONS ARE NOT UNDER NWS QUALITY CONTROL. THEY ALSO MAY NOT
  REPORT WEATHER SUCH AS PRECIPITATION OR FOG.

ILZ001-002-007-009-015-016-024-200800-
NORTHWEST ILLINOIS

CITY           SKY/WX    TMP DP  RH WIND       PRES   REMARKS
MOLINE         FAIR      52  43  71 W10       29.86F
STERLING*      FAIR      48  41  76 W3        29.85F
SAVANNA*       FAIR      51  43  73 SW5       29.84F
$$

ILZ003-004-008-010-011-017-018-200800-
NORTH CENTRAL ILLINOIS

CITY           SKY/WX    TMP DP  RH WIND       PRES   REMARKS
ROCKFORD       FAIR      48  42  80 S8        29.85F
FREEPORT*      FAIR      48  42  81 SW12G17   29.84F
ROCHELLE*      FAIR      47  43  87 CALM      29.86F
DE KALB*       FAIR      44  41  91 S8        29.86F
PERU*          FAIR      53  45  75 SW13      29.88F
$$

ILZ005-006-012>014-019>023-200800-
NORTHEAST ILLINOIS

CITY           SKY/WX    TMP DP  RH WIND       PRES   REMARKS
CHICAGO-OHARE  FAIR      51  43  74 SW9       29.86F
CHICAGO-MIDWAY FAIR      51  44  77 S10       29.88F
AURORA         FAIR      49  43  80 SW10      29.87F
LANSING*       MOCLDY    49  44  83 S10       29.91F
JOLIET*        FAIR      48  44  84 S7        29.89F
WAUKEGAN       FAIR      50  42  74 SW13      29.83F
DUPAGE AIRPORT FAIR      49  43  80 S7        29.86F
KANKAKEE*      CLOUDY    48  44  86 S9        29.92F
WHEELING       FAIR      53  43  68 SW9       29.87F
MORRIS*        FAIR      50  46  86 SW7       29.88F
ROMEOVILLE*    FAIR      49  43  80 S8        29.89F
NORTHERLY ISL    N/A     52  43  71 S5          N/A
$$

LMZ740>746-200800-
SOUTHERN LAKE MICHIGAN

STATION/POSITION SKY/WX   TEMP    WIND        PRES    VSBY  WAVE
                          AIR SEA DIR/SP/G                  HT/PER
                          (F)     (DEG/KT/KT) (MB)    (MI)  (FT/S)
SOUTHERN BUOY              56 55  220/ 21/ 25 1009.7F         5/ 6
WAUKEGAN HARBOR            54     230/ 14/ 20   N/A
HARRISON CRIB              53     210/ 26/ 30   N/A
BURNHAM HARBOR             51     220/  9/ 12   N/A
CALUMET HARBOR             52     200/ 11/ 15 1010.9F
MICHIGAN CITY              50     160/ 16/ 19   N/A
$$

ILZ025>027-034>036-040-047-049-050-058-095>099-200800-
WEST-CENTRAL ILLINOIS

CITY           SKY/WX    TMP DP  RH WIND       PRES   REMARKS
QUINCY         FAIR      52  46  80 SW9       29.95F
GALESBURG*     FAIR      48  44  85 SW10      29.89F
MACOMB*        FAIR      51  45  80 SW7       29.94F
JACKSONVILLE*  FAIR      55  47  74 SW9       29.95F
PITTSFIELD*    FAIR      54  46  75 SW6       29.97F
$$

ILZ028>032-037-038-041>044-048-051>054-059>061-200800-
CENTRAL ILLINOIS

CITY           SKY/WX    TMP DP  RH WIND       PRES   REMARKS
PONTIAC        FAIR      52  46  82 S9        29.91F
BLOOMINGTON    FAIR      49  46  89 SW8       29.94F
DECATUR        FAIR      51  45  79 SW9       29.97F
PEORIA         FAIR      51  45  79 SW8       29.92F
LACON*         FAIR      51  45  78 SW8       29.89F
LINCOLN*       FAIR      51  46  82 S3        29.93F
SPRINGFIELD    FAIR      53  46  77 S8        29.96F
TAYLORVILLE    FAIR      52  45  76 S7        29.98F
$$

ILZ033-039-045-046-055>057-062-063-200800-
EAST-CENTRAL ILLINOIS

CITY           SKY/WX    TMP DP  RH WIND       PRES   REMARKS
CHAMPAIGN      FAIR      48  44  86 S7        29.97F
DANVILLE*      FAIR      47  44  88 S7        29.95F
RANTOUL*       FAIR      51  44  77 S8        29.96F
MATTOON        CLOUDY    51  44  77 S9        29.98F
PARIS*         CLOUDY    50  45  83 S7        30.00F
$$

ILZ079-100>102-200800-
SOUTHWEST ILLINOIS

CITY           SKY/WX    TMP DP  RH WIND       PRES   REMARKS
ALTON          CLOUDY    56  47  70 S9        30.00F
BELLEVILLE     CLOUDY    54  50  87 S6        30.01F
CAHOKIA*       CLOUDY    57  47  69 SW5       30.01F
SPARTA*        CLOUDY    53  47  79 SW5       30.05F
$$

ILZ064>066-069>071-074>076-080>082-084>086-088>090-092>094-200800-
SOUTH-CENTRAL ILLINOIS

CITY           SKY/WX    TMP DP  RH WIND       PRES   REMARKS
CARBONDALE     FAIR      45  43  93 CALM      30.05F
CAIRO*         FAIR      49  45  87 CALM      30.06F
EFFINGHAM*     CLOUDY    51  43  74 S3        30.01F
MARION         FAIR      48  45  87 S3        30.06F
MT. VERNON     MOCLDY    52  45  76 SW6       30.04F
CENTRALIA*     CLOUDY    52  47  83 SW6       30.03F
SALEM*         MOCLDY    55  49  81 SW7       30.03F
METROPOLIS*    FAIR      46  46 100 CALM      30.06F FOG
$$

ILZ067-068-072-073-078-083-087-091-200800-
SOUTHEAST ILLINOIS

CITY           SKY/WX    TMP DP  RH WIND       PRES   REMARKS
LAWRENCEVILLE  MOCLDY    47  45  93 S6        30.04F FOG
FLORA*         FAIR      51  46  83 SW6       30.03F
FAIRFIELD*     CLOUDY    50  46  85 S3        30.04F
HARRISBURG*    FAIR      44  44 100 CALM      30.07F
ROBINSON*      MOCLDY    50  47  87 S6        30.04F
CARMI*         FAIR      46  46  99 CALM      30.05F
$$

ABBREVIATIONS USED IN REMARKS
   TC - TEMPERATURE IN CELSIUS
  WCI - WIND CHILL INDEX
   HX - HEAT INDEX
  VSB - VISIBILITY
$$




USA.gov is the U.S. government's official web portal to all federal, state and local government web resources and services.